This demonstration page uses our WeatherBlox Daily Observations layout. Learn more.

Left ArrowRight Arrow

39.51506, -84.39828

Hourly Observations for May 9, 2017

Temp ( °F °C ) Dew Point ( °F °C ) Humidity (%) Winds ( mph kmh ) Pressure ( in mb ) Visibility ( mi km ) Precip ( " mm )
12:15 am 00:15 Cloudy with Light Rain 55 12.5 47 8.5 77 77 Calm 30.03 1017 10 16 0.00 0.00
12:35 am 00:35 Cloudy with Light Rain 55 12.5 47 8.5 77 77 Calm 30.03 1017 10 16 0.00 0.00
12:55 am 00:55 Cloudy 55 12.5 48 8.8 78 78 Calm 30.00 1016 10 16 0.00 0.00
1:15 am 01:15 Cloudy with Light Rain 55 12.5 48 8.8 78 78 Calm 30.03 1017 10 16 0.00 0.00
1:35 am 01:35 Mostly Cloudy with Light Rain 55 12.5 48 8.7 78 78 Calm 30.00 1016 7 11 0.00 0.00
1:55 am 01:55 Partly Cloudy 55 12.5 48 9 79 79 WNW 3 6 30.00 1016 10 16 0.00 0.00
2:15 am 02:15 Mostly Cloudy 55 12.5 49 9.3 81 81 N 3 6 30.00 1016 10 16 0.00 0.00
2:35 am 02:35 Cloudy 55 12.5 49 9.2 80 80 Calm 30.00 1016 10 16 0.00 0.00
2:55 am 02:55 Cloudy 55 12.5 48 9.1 80 80 Calm 30.00 1016 10 16 0.00 0.00
3:15 am 03:15 Cloudy 55 12.5 49 9.2 80 80 NNE 3 6 30.00 1016 10 16 0.00 0.00
3:35 am 03:35 Cloudy with Light Rain 55 12.5 49 9.2 80 80 Calm 30.00 1016 10 16 0.00 0.00
3:55 am 03:55 Cloudy with Drizzle 55 12.5 49 9.2 80 80 Calm 30.00 1016 10 16 0.00 0.00
4:15 am 04:15 Cloudy with Light Rain 55 12.5 49 9.2 80 80 Calm 30.00 1016 10 16 0.00 0.00
4:35 am 04:35 Mostly Cloudy 52 11.1 47 8.1 82 82 Calm 30.00 1016 10 16 0.00 0.00
4:55 am 04:55 Partly Cloudy with Light Rain 52 11.1 47 8.2 82 82 SW 3 6 30.00 1016 10 16 0.00 0.00
5:15 am 05:15 Mostly Cloudy with Light Rain 55 12.5 49 9.2 80 80 SSW 3 6 30.00 1016 10 16 0.00 0.00
5:35 am 05:35 Cloudy 53 11.6 47 8.3 80 80 Calm 30.00 1016 10 16 0.00 0.00
5:55 am 05:55 Cloudy with Heavy Rain 52 11.2 46 8 81 81 Calm 30.00 1016 4 6 0.00 0.00
6:15 am 06:15 Cloudy with Light Rain 51 10.8 46 7.8 82 82 Calm 30.00 1016 5 8 0.00 0.00
6:35 am 06:35 Cloudy with Drizzle 51 10.3 45 7.4 82 82 S 5 7 29.97 1015 7 11 0.00 0.00
6:55 am 06:55 Cloudy with Light Rain 50 10.2 45 7 81 81 Calm 29.97 1015 10 16 0.00 0.00
7:15 am 07:15 Cloudy with Light Rain 50 10.1 44 6.5 79 79 Calm 30.00 1016 10 16 0.00 0.00
7:35 am 07:35 Cloudy with Light Snow 51 10.3 44 6.8 79 79 Calm 30.00 1016 5 8 0.00 0.00
7:55 am 07:55 Cloudy with Drizzle 51 10.5 45 7.3 81 81 Calm 30.00 1016 7 11 0.00 0.00
8:15 am 08:15 Cloudy 52 11 46 7.5 79 79 ENE 5 7 30.00 1016 10 16 0.00 0.00
8:35 am 08:35 Cloudy with Light Rain 51 10.3 45 7.1 81 81 Calm 30.00 1016 7 11 0.00 0.00
8:55 am 08:55 Cloudy with Light Rain 51 10.3 45 7.2 81 81 N 3 6 30.03 1017 7 11 0.00 0.00
9:15 am 09:15 Cloudy with Rain 51 10.3 45 7.2 81 81 E 6 9 30.00 1016 4 6 0.00 0.00
9:35 am 09:35 Cloudy with Rain 51 10.3 46 7.5 83 83 NNE 3 6 30.00 1016 3 4 0.00 0.00
9:55 am 09:55 Cloudy with Rain 51 10.3 46 7.5 83 83 Calm 30.03 1017 3 5 0.00 0.00
10:15 am 10:15 Cloudy with Rain 51 10.8 46 8 83 83 Calm 30.03 1017 4 6 0.00 0.00
10:35 am 10:35 Cloudy with Rain 52 11 47 8.1 82 82 SSE 3 6 30.03 1017 2 3 0.00 0.00
10:55 am 10:55 Cloudy with Rain 52 11 47 8.1 82 82 E 3 6 30.00 1016 4 6 0.00 0.00
11:15 am 11:15 Cloudy with Light Rain 52 11 47 8.1 82 82 E 6 9 30.00 1016 5 8 0.00 0.00
11:35 am 11:35 Cloudy with Light Rain 52 11 47 8.1 82 82 ESE 3 6 30.00 1016 5 8 0.00 0.00
11:55 am 11:55 Cloudy with Light Rain 52 11.3 47 8.2 81 81 Calm 30.00 1016 7 11 0.00 0.00
12:15 pm 12:15 Cloudy with Light Rain 55 12.5 49 9.2 80 80 SE 7 11 29.97 1015 10 16 0.00 0.00
12:35 pm 12:35 Cloudy with Light Rain 55 12.5 49 9.2 80 80 SSE 6 9 29.97 1015 10 16 0.00 0.00
12:55 pm 12:55 Cloudy with Drizzle 55 12.5 48 9.1 80 80 ESE 3 6 30.00 1016 10 16 0.00 0.00
1:15 pm 13:15 Cloudy 55 12.5 48 9.1 80 80 ENE 5 7 30.00 1016 10 16 0.00 0.00
1:35 pm 13:35 Cloudy 55 12.5 48 9 79 79 ENE 5 7 30.00 1016 10 16 0.00 0.00
1:55 pm 13:55 Cloudy 55 12.5 48 9 79 79 NE 5 7 30.00 1016 10 16 0.00 0.00
2:15 pm 14:15 Cloudy 55 12.5 48 8.8 78 78 NE 6 9 30.00 1016 10 16 0.00 0.00
2:35 pm 14:35 Cloudy 57 13.8 50 10 78 78 NE 6 9 30.00 1016 10 16 0.00 0.00
2:55 pm 14:55 Cloudy 57 13.8 50 10 78 78 NE 5 7 29.97 1015 10 16 0.00 0.00
3:15 pm 15:15 Cloudy 57 13.8 50 9.8 77 77 E 3 6 29.97 1015 10 16 0.00 0.00
3:35 pm 15:35 Cloudy 57 13.9 50 9.9 77 77 E 5 7 29.97 1015 10 16 0.00 0.00
3:55 pm 15:55 Cloudy 57 13.9 49 9.4 74 74 E 3 6 29.97 1015 10 16 0.00 0.00
4:15 pm 16:15 Cloudy 58 14.3 50 10.1 76 76 E 3 6 29.97 1015 10 16 0.00 0.00
4:35 pm 16:35 Cloudy 60 15.3 51 10.8 75 75 E 3 6 29.94 1014 10 16 0.00 0.00
4:55 pm 16:55 Cloudy 60 15.3 52 10.9 75 75 ENE 3 6 29.94 1014 10 16 0.00 0.00
5:15 pm 17:15 Cloudy 60 15.3 51 10.7 74 74 E 5 7 29.94 1014 10 16 0.00 0.00
5:35 pm 17:35 Cloudy 60 15.3 51 10.6 74 74 E 3 6 29.94 1014 10 16 0.00 0.00
5:55 pm 17:55 Cloudy 60 15.3 51 10.6 74 74 ESE 5 7 29.91 1013 10 16 0.00 0.00
6:15 pm 18:15 Cloudy 60 15.3 51 10.6 74 74 E 6 9 29.91 1013 10 16 0.00 0.00
6:35 pm 18:35 Cloudy 60 15.3 51 10.7 74 74 NE 6 9 29.91 1013 10 16 0.00 0.00
6:55 pm 18:55 Cloudy 60 15.3 51 10.8 75 75 E 5 7 29.91 1013 10 16 0.00 0.00
7:15 pm 19:15 Cloudy 60 15.3 51 10.7 74 74 E 3 6 29.91 1013 10 16 0.00 0.00
7:35 pm 19:35 Cloudy 60 15.3 51 10.8 75 75 E 3 6 29.91 1013 10 16 0.00 0.00
7:55 pm 19:55 Cloudy 60 15.3 52 11.1 76 76 Calm 29.91 1013 10 16 0.00 0.00
8:15 pm 20:15 Cloudy 60 15.3 52 11.3 77 77 NE 3 6 29.91 1013 10 16 0.00 0.00
8:35 pm 20:35 Cloudy 60 15.3 53 11.6 79 79 NE 5 7 29.91 1013 10 16 0.00 0.00
8:55 pm 20:55 Cloudy 60 15.3 53 11.6 79 79 ENE 3 6 29.91 1013 10 16 0.00 0.00
9:15 pm 21:15 Cloudy 58 14.3 51 10.7 79 79 ENE 3 6 29.94 1014 7 11 0.00 0.00
9:35 pm 21:35 Cloudy 58 14.4 51 10.8 79 79 Calm 29.94 1014 10 16 0.00 0.00
9:55 pm 21:55 Cloudy 57 14.1 51 10.6 80 80 ENE 3 6 29.94 1014 10 16 0.00 0.00
10:15 pm 22:15 Cloudy 58 14.2 51 10.5 79 79 ENE 3 6 29.97 1015 10 16 0.00 0.00
10:35 pm 22:35 Cloudy 57 14 50 10.2 78 78 NE 3 6 29.97 1015 10 16 0.00 0.00
10:55 pm 22:55 Cloudy 57 13.8 51 10.3 80 80 Calm 29.97 1015 10 16 0.00 0.00
11:15 pm 23:15 Cloudy 57 13.8 51 10.5 81 81 ENE 3 6 29.97 1015 10 16 0.00 0.00
11:35 pm 23:35 Cloudy 57 13.8 51 10.5 81 81 Calm 29.97 1015 10 16 0.00 0.00
11:55 pm 23:55 Cloudy 57 13.8 51 10.5 81 81 Calm 29.97 1015 10 16 0.00 0.00

Powered by AerisWeather